Location: Bratislava
(48.1500°N, 17.1167°E)
Time: 14:26:51
(UTC+02:00)

Daily predictions for brighter satellites

Satellite Brightness Start Highest point End
(mag) Time Altitude Azimuth Time Altitude Azimuth Time Altitude Azimuth
Meteor 1-16 Rocket 4.1 18:11:58 10° S 18:17:16 80° E 18:22:41 10° NNE
Cosmos 2219 Rocket 3.0 18:13:23 10° NNW 18:18:19 30° NE 18:23:15 10° ESE
Cosmos 1743 Rocket 3.5 18:15:08 10° N 18:19:32 69° E 18:23:56 10° SSE
Meteor 1-11 4.3 18:14:09 10° NNW 18:19:59 88° ENE 18:25:42 10° S
CZ-4 R/B 1.5 18:17:50 10° SSE 18:22:02 85° ENE 18:26:11 10° NNW
SL-24 R/B - RUBIN 2 4.0 18:17:16 10° NW 18:22:16 76° SW 18:26:45 10° SSE
Cosmos 2221 3.7 18:19:06 10° SE 18:22:29 23° E 18:25:53 10° NE
CZ-4C R/B 3.5 18:19:58 10° SSE 18:23:33 19° ESE 18:27:27 10° ENE
Aureole 2 Rocket 4.0 18:20:35 10° N 18:23:40 22° ENE 18:26:52 10° ESE
Cosmos 921 Rocket 3.1 18:20:01 10° NNW 18:24:27 58° ENE 18:28:46 10° SSE
Cosmos 2084 4.3 18:21:34 10° NNW 18:24:50 26° NE 18:28:07 10° E
CZ-4 R/B 4.5 18:22:09 10° SSE 18:26:13 60° ENE 18:30:20 10° N
MTI 4.2 18:23:50 10° NNE 18:26:55 40° E 18:29:57 10° S
SMAP 3.6 18:26:54 10° S 18:31:31 65° WSW 18:36:10 10° NNW
Cosmos 1842 Rocket 3.6 18:27:40 10° S 18:32:03 59° E 18:36:26 10° NNE
SL-8 R/B 4.1 18:27:58 10° SW 18:32:38 52° SSE 18:37:14 10° E
NOAA 12 4.5 18:29:01 10° SE 18:34:00 43° ENE 18:39:02 10° N
METEOR-M 4.2 18:29:33 10° SSE 18:34:49 63° ENE 18:40:07 10° N
Cosmos 1420 Rocket 4.0 18:29:50 10° NNW 18:35:09 68° ENE 18:40:25 10° SSE
EO 1 Del DPAF 3.6 18:32:35 10° NNE 18:36:19 45° E 18:40:00 10° S
APEX 4.2 18:34:20 10° SSE 18:36:26 17° ESE 18:38:01 12° ENE
GRACE-1 4.5 18:34:36 10° SSE 18:36:55 30° E 18:39:15 10° NNE
SL-16 R/B 4.3 18:32:17 10° NW 18:37:14 32° WSW 18:42:10 10° SSW
Cosmos 2366 rocket 4.0 18:33:10 10° S 18:39:22 85° E 18:45:34 10° N
ERS-2 2.6 18:36:01 10° S 18:39:41 66° WSW 18:43:23 10° NNW
Cosmos 1500 Rocket 3.5 18:35:47 10° N 18:40:10 86° E 18:44:30 10° S
MONITOR-E 4.2 18:38:11 10° SSE 18:41:13 56° ENE 18:44:15 10° N
BREEZE M DEB (TANK) 2.4 18:37:12 10° W 18:43:54 80° N 18:46:07 14° E
Cosmos 2333 4.3 18:38:15 10° NNW 18:43:56 62° ENE 18:49:38 10° SE
Cosmos 1315 Rocket 2.8 18:40:06 10° N 18:44:12 70° ENE 18:48:17 10° SSE
Landsat 4 3.7 18:40:41 10° NNE 18:44:25 83° WNW 18:48:08 10° SSW
Cosmos 2237 4.3 18:42:22 10° NNW 18:48:09 86° WSW 18:53:52 10° SSE
Cosmos 1726 3.2 18:46:33 10° SE 18:49:30 23° E 18:52:27 10° NE
Thor Agena Rocket 4.5 18:46:16 10° NE 18:50:25 25° E 18:54:32 10° SSE
Abrixas rocket 2.2 18:47:24 10° W 18:50:42 83° N 18:53:04 18° E
Cosmos 44 Rocket 3.9 18:47:35 10° S 18:51:48 34° ESE 18:55:45 11° NE
Cosmos 2237 Rocket 3.0 18:48:33 10° NNW 18:53:39 32° NE 18:57:54 14° ESE
Gbstr 26 Del rocket 3.6 18:49:31 10° WNW 18:54:18 79° SSW 19:00:16 10° ESE
Aureole 1 Rocket 4.4 18:48:48 10° SW 18:54:32 50° WNW 18:58:53 10° NNE
Meteor 1-28 Rocket 3.5 18:51:37 10° N 18:55:24 69° WNW 18:59:09 10° SSW
Resurs 01 Rocket 3.2 19:03:24 17° ENE 19:03:43 17° ENE 19:06:32 10° NNE
SL-16 R/B 3.6 19:00:50 10° N 19:05:03 21° NE 19:07:11 17° ENE
Cosmos 2227 Rocket 3.7 19:01:57 10° SE 19:04:19 15° ESE 19:04:19 15° ESE
Sich 1 3.5 19:01:44 10° N 19:05:50 37° ENE 19:09:56 10° SE
COSMO-SKYMED 1 2.5 19:02:13 10° NNE 19:06:35 80° ESE 19:10:56 10° S
Lacrosse 5 rocket 3.0 19:04:34 10° WNW 19:08:18 26° N 19:11:10 13° NE
SJ-6B 3.5 19:08:06 21° ESE 19:09:40 29° ENE 19:12:57 10° N
Cosmos 1000 Rocket 4.4 19:04:12 10° N 19:10:28 73° E 19:16:38 10° SSE
Cosmos 2360 Rocket 3.8 19:09:44 10° NW 19:14:55 38° WSW 19:20:05 10° S
Cosmos 1821 Rocket 4.0 19:09:28 10° S 19:15:29 57° E 19:21:38 10° NNE
FREGAT/IRIS 2.9 19:14:49 29° ESE 19:15:50 41° ENE 19:18:41 10° N
USA 234 3.9 19:11:24 17° ENE 19:16:07 43° N 19:22:13 10° WNW
Cosmos 1934 Rocket 4.3 19:10:10 10° SSE 19:16:09 45° E 19:22:09 10° NNE
Cosmos 1908 3.3 19:13:42 10° SSW 19:17:37 81° W 19:21:33 10° N
Cosmos 1980 4.0 19:12:29 10° NNW 19:17:57 47° NE 19:21:42 19° ESE
Cosmos 1805 Rocket 3.4 19:14:40 10° N 19:19:04 75° E 19:23:29 10° SSE
Cosmos 2239 Rocket 4.4 19:15:36 10° S 19:21:37 63° E 19:27:43 10° NNE
DMSP B5D1-3 4.4 19:16:47 10° NNE 19:21:55 69° ESE 19:27:03 10° S
ATLAS 5 CENTAUR R/B 4.1 19:19:47 10° NNW 19:23:14 17° N 19:26:24 11° NE
Cosmos 1269 Rocket 4.0 19:19:22 10° S 19:24:32 62° ESE 19:29:46 10° NNE
COSMOS 2428 3.1 19:19:06 10° NNW 19:24:45 67° WSW 19:30:23 10° SSE
H-2A R/B 2.8 19:23:04 10° SSE 19:26:50 57° ENE 19:30:43 10° N
Cosmos 2333 Rocket 2.2 19:22:05 10° NNW 19:27:51 74° ENE 19:33:14 12° SE
Cosmos 1666 Rocket 3.5 19:23:57 10° N 19:28:16 60° ENE 19:32:32 10° SSE
ALOS 2.5 19:25:23 10° S 19:30:02 70° WSW 19:34:44 10° NNW
SPOT 3 Rocket 4.5 19:27:18 10° S 19:32:21 51° W 19:37:28 10° NNW
Cosmos 2219 3.2 19:27:58 10° SSW 19:33:40 67° ESE 19:39:22 10° NNE
HJ-1C 3.6 19:33:55 49° ENE 19:33:56 49° ENE 19:37:16 10° N
Cosmos 1633 Rocket 3.1 19:29:44 10° N 19:34:08 58° ENE 19:37:29 17° SSE
FENGYUN 3A 4.0 19:30:47 10° S 19:36:09 69° WSW 19:41:35 10° NNW
Cosmos 2123 Rocket 3.9 19:35:35 10° N 19:41:50 73° E 19:48:07 10° SSE
Cosmos 2297 Rocket 3.8 19:37:51 10° SSE 19:39:18 16° SE 19:39:18 16° SE
Cosmos 1300 2.5 19:41:20 10° S 19:45:08 67° E 19:48:57 10° NNE
Spot 2 Rocket 4.0 19:45:36 37° ENE 19:45:48 37° ENE 19:50:26 10° N
CSL-04 DEB 4.2 19:46:31 42° SE 19:47:46 70° ENE 19:51:47 10° N
Cosmos 2098 Rocket 3.7 19:43:07 10° SSW 19:47:55 78° W 19:54:06 10° N
Meteor 2-2 Rocket 4.3 19:42:43 10° S 19:48:12 51° E 19:53:39 10° NNE
Iridium 4 Rocket 4.1 19:42:45 10° SSW 19:48:23 69° W 19:54:19 10° N
Cosmos 1605 Rocket 4.0 19:44:00 10° SSE 19:49:53 54° E 19:55:48 10° NNE
Cosmos 494 Rocket 4.2 19:45:41 10° S 19:50:06 42° ESE 19:50:06 42° ESE
MOS 1-B Rocket 3.9 19:47:31 25° SE 19:50:51 60° ENE 19:57:05 10° N
CZ-2D R/B 3.8 19:51:54 42° NNE 19:51:54 42° NNE 19:54:52 10° N
Cosmos 1110 Rocket 4.0 19:46:20 10° NNW 19:51:42 90° WSW 19:55:19 21° SSE
Cosmos 967 Rocket 4.5 19:46:27 10° NNW 19:52:54 66° NE 19:55:31 37° ESE
USA 32 4.1 19:47:57 10° N 19:53:06 52° E 19:54:18 43° ESE
Meteor 2-10 3.8 19:48:48 10° S 19:53:49 74° E 19:59:00 10° NNE
Geosat FO 4.5 19:55:22 79° SSE 19:55:35 89° NNE 19:59:15 10° NNW
FengYun 1-2 T 4.3 19:50:25 10° S 19:55:55 77° WSW 20:01:26 10° NNW
Aureole 2 Rocket 4.1 19:55:11 10° NW 19:58:51 40° WSW 20:02:36 10° S
Cosmos 2221 4.0 19:55:47 10° SW 19:59:50 38° WNW 20:03:56 10° N
Cosmos 44 3.3 19:57:15 10° SW 20:01:34 64° NW 20:03:15 35° NNE
Cosmos 2219 Rocket 2.8 19:57:07 10° NW 20:02:35 54° WSW 20:08:01 10° S
Cosmos 2084 4.0 20:00:50 10° NW 20:04:29 46° SW 20:05:13 40° SSW
NOSS 0 Rocket 4.3 20:04:50 10° NW 20:10:57 64° WSW 20:15:21 19° S
CZ-4C R/B 2.2 20:05:47 10° SW 20:11:07 82° NW 20:14:12 30° NE
SL-8 R/B 3.5 20:10:14 10° W 20:15:04 88° N 20:15:13 84° ENE
Cosmos 1447 Rocket 4.4 20:13:46 10° N 20:20:09 79° E 20:22:26 42° SSE
Envisat 2.9 20:20:56 72° NE 20:20:56 72° NE 20:25:48 10° N
USA 267 4.0 20:22:48 33° SSE 20:22:48 33° SSE 20:27:13 10° SSW
Cosmos 1726 4.2 20:21:29 10° SW 20:24:40 27° WNW 20:27:53 10° NNW
Cosmos 1470 Rocket 3.9 20:22:07 10° NNW 20:25:51 60° NNW 20:25:51 60° NNW
Abrixas rocket 4.5 20:24:04 10° W 20:25:36 25° W 20:25:36 25° W
Thor Agena Rocket 4.3 20:25:04 10° N 20:30:00 49° WNW 20:34:50 10° SW
Cosmos 44 Rocket 4.3 20:28:48 10° WSW 20:33:15 41° NW 20:34:31 34° N
Cosmos 2237 Rocket 2.8 20:32:27 10° NW 20:37:59 53° WSW 20:39:47 38° SSW
Resurs 01 Rocket 2.6 20:40:59 44° NW 20:40:59 44° NW 20:44:08 10° NNW
Cosmos 2227 Rocket 3.1 20:42:49 10° SSW 20:46:16 39° SSW 20:46:16 39° SSW
Lacrosse 5 rocket 3.5 20:44:44 10° NW 20:46:51 22° NNW 20:46:51 22° NNW
SL-16 R/B 2.4 20:44:17 10° NNW 20:49:04 64° NNW 20:49:04 64° NNW
USA 234 3.3 20:58:45 68° NNE 20:58:45 68° NNE 21:05:07 10° NW
Meteor 2-3 Rocket 4.3 20:54:41 10° NNW 21:00:18 54° W 21:00:51 52° WSW
ATLAS 5 CENTAUR R/B 3.8 21:04:42 10° NNW 21:07:56 26° N 21:07:56 26° N
Cosmos 2333 Rocket 4.5 21:07:27 10° NW 21:11:29 20° W 21:15:20 11° SW
Cosmos 2297 Rocket 4.5 21:20:30 10° SW 21:21:14 14° SW 21:21:14 14° SW
CZ-4C R/B 4.2 21:55:44 10° W 21:59:25 26° NW 21:59:25 26° NW
